DYE307 LIRN-LIMJ

Flight info

Callsign DYE307
Flight time 1h 24m
Altitude 32000
Route VEXUV DCT PNZ DCT LUNAK DCT RAVAL DCT ELB DCT NORNI DCT BETEN M729 IDONA
Aircraft A20N/M-SDE2E3FGHIRWXY/LB1

Departure

Time 2026-04-21 19:10
Airport Naples International Airport (LIRN)

Arrival

Time 2026-04-21 20:34
Airport Genoa Cristoforo Colombo Airport (LIMJ)
Time Latitude Longitude Altitude Speed Heading
2026-04-21 18:38 40.88140 14.28616 283 ft 0 kts 329°
2026-04-21 19:01 40.88139 14.28617 283 ft 2 kts 329°
2026-04-21 19:01 40.88126 14.28627 258 ft 2 kts 329°
2026-04-21 19:01 40.88113 14.28637 296 ft 2 kts 329°
2026-04-21 19:02 40.88100 14.28646 294 ft 2 kts 329°
2026-04-21 19:02 40.88087 14.28656 284 ft 2 kts 351°
2026-04-21 19:02 40.88073 14.28654 285 ft 0 kts 45°
2026-04-21 19:05 40.88075 14.28656 283 ft 2 kts 46°
2026-04-21 19:05 40.88114 14.28721 281 ft 14 kts 54°
2026-04-21 19:05 40.88187 14.28851 277 ft 20 kts 52°
2026-04-21 19:05 40.88267 14.28987 273 ft 21 kts 51°
2026-04-21 19:06 40.88363 14.29150 268 ft 18 kts 53°
2026-04-21 19:06 40.88446 14.29294 263 ft 21 kts 54°
2026-04-21 19:06 40.88536 14.29454 258 ft 23 kts 52°
2026-04-21 19:06 40.88615 14.29590 254 ft 19 kts 53°
2026-04-21 19:07 40.88700 14.29740 249 ft 22 kts 53°
2026-04-21 19:07 40.88778 14.29874 245 ft 14 kts 52°
2026-04-21 19:07 40.88851 14.30002 241 ft 21 kts 53°
2026-04-21 19:07 40.88940 14.30162 238 ft 16 kts 53°
2026-04-21 19:08 40.89009 14.30255 235 ft 14 kts 19°
2026-04-21 19:08 40.89031 14.30256 232 ft 0 kts 351°
2026-04-21 19:08 40.89060 14.30243 232 ft 11 kts 335°
2026-04-21 19:09 40.89110 14.30159 233 ft 11 kts 262°
2026-04-21 19:09 40.89090 14.30110 237 ft 21 kts 238°
2026-04-21 19:09 40.88877 14.29671 249 ft 90 kts 238°
2026-04-21 19:09 40.88445 14.28767 278 ft 140 kts 237°
2026-04-21 19:10 40.87873 14.27703 810 ft 138 kts 227°
2026-04-21 19:10 40.87229 14.26722 1339 ft 144 kts 230°
2026-04-21 19:10 40.86561 14.25724 1911 ft 146 kts 224°
2026-04-21 19:10 40.85782 14.24764 2337 ft 162 kts 223°
2026-04-21 19:11 40.84782 14.23926 2733 ft 184 kts 193°
2026-04-21 19:11 40.83459 14.24020 3418 ft 198 kts 168°
2026-04-21 19:11 40.82122 14.24508 4246 ft 201 kts 165°
2026-04-21 19:11 40.80770 14.25068 4962 ft 206 kts 165°
2026-04-21 19:12 40.79386 14.25626 5670 ft 210 kts 166°
2026-04-21 19:12 40.77970 14.26166 6380 ft 214 kts 167°
2026-04-21 19:12 40.76527 14.26693 7065 ft 216 kts 168°
2026-04-21 19:12 40.75086 14.27207 7745 ft 219 kts 168°
2026-04-21 19:13 40.73604 14.27731 8438 ft 222 kts 169°
2026-04-21 19:13 40.72100 14.28228 9135 ft 223 kts 178°
2026-04-21 19:13 40.70615 14.27968 9808 ft 212 kts 211°
2026-04-21 19:13 40.69456 14.26841 10425 ft 210 kts 227°
2026-04-21 19:14 40.68317 14.25502 10723 ft 230 kts 227°
2026-04-21 19:14 40.67050 14.24022 10907 ft 256 kts 226°
2026-04-21 19:14 40.65644 14.22403 11212 ft 280 kts 226°
2026-04-21 19:14 40.64141 14.20694 11806 ft 289 kts 225°
2026-04-21 19:15 40.62610 14.18965 12621 ft 291 kts 225°
2026-04-21 19:15 40.61062 14.17216 13401 ft 295 kts 226°
2026-04-21 19:15 40.59495 14.15441 14126 ft 299 kts 226°
2026-04-21 19:15 40.57935 14.13672 14822 ft 301 kts 226°
2026-04-21 19:16 40.56340 14.11863 15518 ft 304 kts 226°
2026-04-21 19:16 40.54729 14.10033 16214 ft 307 kts 226°
2026-04-21 19:16 40.53103 14.08189 16902 ft 310 kts 226°
2026-04-21 19:16 40.51495 14.06291 17583 ft 310 kts 232°
2026-04-21 19:17 40.49280 14.01535 18821 ft 305 kts 254°
2026-04-21 19:17 40.48561 13.98902 19399 ft 308 kts 254°
2026-04-21 19:17 40.47822 13.96247 19984 ft 311 kts 254°
2026-04-21 19:18 40.47070 13.93573 20552 ft 313 kts 254°
2026-04-21 19:18 40.46310 13.90880 21117 ft 316 kts 254°
2026-04-21 19:18 40.45541 13.88162 21686 ft 319 kts 254°
2026-04-21 19:18 40.44766 13.85422 22238 ft 322 kts 254°
2026-04-21 19:19 40.43993 13.82694 22779 ft 324 kts 254°
2026-04-21 19:19 40.43286 13.79882 23304 ft 324 kts 263°
2026-04-21 19:19 40.43207 13.76958 23770 ft 321 kts 280°
2026-04-21 19:19 40.43862 13.74177 24228 ft 320 kts 297°
2026-04-21 19:20 40.45137 13.71778 24671 ft 324 kts 307°
2026-04-21 19:20 40.46586 13.69434 24792 ft 337 kts 307°
2026-04-21 19:20 40.48088 13.66997 24901 ft 350 kts 307°
2026-04-21 19:20 40.49641 13.64468 25008 ft 362 kts 307°
2026-04-21 19:21 40.51245 13.61849 25118 ft 374 kts 307°
2026-04-21 19:21 40.52892 13.59154 25365 ft 381 kts 307°
2026-04-21 19:21 40.54552 13.56436 25826 ft 382 kts 307°
2026-04-21 19:21 40.56214 13.53711 26267 ft 383 kts 307°
2026-04-21 19:22 40.57864 13.51003 26680 ft 385 kts 307°
2026-04-21 19:22 40.59542 13.48247 27095 ft 387 kts 307°
2026-04-21 19:22 40.61225 13.45477 27503 ft 389 kts 307°
2026-04-21 19:22 40.62917 13.42693 27880 ft 391 kts 307°
2026-04-21 19:23 40.64618 13.39888 28257 ft 392 kts 307°
2026-04-21 19:23 40.66323 13.37077 28624 ft 394 kts 307°
2026-04-21 19:23 40.68038 13.34245 28979 ft 396 kts 306°
2026-04-21 19:23 40.69757 13.31405 29322 ft 397 kts 306°
2026-04-21 19:24 40.71485 13.28548 29646 ft 399 kts 306°
2026-04-21 19:24 40.73218 13.25677 29990 ft 401 kts 306°
2026-04-21 19:24 40.74935 13.22831 30285 ft 402 kts 306°
2026-04-21 19:24 40.76676 13.19942 30598 ft 403 kts 306°
2026-04-21 19:25 40.78424 13.17039 30908 ft 404 kts 306°
2026-04-21 19:25 40.80173 13.14132 31249 ft 404 kts 306°
2026-04-21 19:25 40.81919 13.11227 31665 ft 402 kts 306°
2026-04-21 19:25 40.83653 13.08341 31903 ft 400 kts 306°
2026-04-21 19:26 40.87097 13.02597 31953 ft 398 kts 306°
2026-04-21 19:26 40.90538 12.96852 31949 ft 398 kts 307°
2026-04-21 19:27 40.94346 12.91503 31948 ft 398 kts 311°
2026-04-21 19:27 40.96255 12.88932 31948 ft 385 kts 311°
2026-04-21 19:27 40.98102 12.86436 31951 ft 378 kts 311°
2026-04-21 19:28 41.01755 12.81484 31949 ft 370 kts 311°
2026-04-21 19:28 41.05284 12.76698 31951 ft 365 kts 311°
2026-04-21 19:29 41.08843 12.71860 31946 ft 366 kts 311°
2026-04-21 19:29 41.12392 12.67033 31948 ft 366 kts 311°
2026-04-21 19:30 41.15941 12.62198 31945 ft 366 kts 311°
2026-04-21 19:30 41.19485 12.57360 31945 ft 365 kts 311°
2026-04-21 19:31 41.23027 12.52518 31949 ft 365 kts 311°
2026-04-21 19:31 41.26566 12.47672 31947 ft 365 kts 311°
2026-04-21 19:32 41.30081 12.42850 31943 ft 365 kts 311°
2026-04-21 19:32 41.33615 12.37995 31943 ft 365 kts 311°
2026-04-21 19:33 41.37149 12.33132 31943 ft 365 kts 311°
2026-04-21 19:33 41.40665 12.28285 31942 ft 357 kts 311°
2026-04-21 19:34 41.42354 12.25961 31940 ft 341 kts 311°
2026-04-21 19:34 41.43974 12.23726 31942 ft 334 kts 310°
2026-04-21 19:34 41.47236 12.19205 31942 ft 343 kts 311°
2026-04-21 19:35 41.52179 12.12355 31940 ft 341 kts 311°
2026-04-21 19:36 41.55470 12.07787 31941 ft 341 kts 311°
2026-04-21 19:36 41.58757 12.03218 31939 ft 341 kts 311°
2026-04-21 19:37 41.62042 11.98643 31939 ft 341 kts 311°
2026-04-21 19:37 41.65302 11.94096 31940 ft 341 kts 311°
2026-04-21 19:38 41.68580 11.89518 31938 ft 341 kts 311°
2026-04-21 19:38 41.71325 11.85677 31939 ft 341 kts 310°
2026-04-21 19:39 41.75133 11.80295 31958 ft 340 kts 310°
2026-04-21 19:39 41.78389 11.75683 31954 ft 340 kts 310°
2026-04-21 19:40 41.81616 11.71112 31955 ft 340 kts 310°
2026-04-21 19:40 41.84883 11.66516 31929 ft 340 kts 310°
2026-04-21 19:41 41.88156 11.61910 31945 ft 340 kts 310°
2026-04-21 19:41 41.91408 11.57321 31940 ft 340 kts 310°
2026-04-21 19:42 41.94645 11.52744 31935 ft 340 kts 310°
2026-04-21 19:42 41.97917 11.48109 31944 ft 340 kts 310°
2026-04-21 19:43 42.01168 11.43498 31941 ft 340 kts 310°
2026-04-21 19:43 42.04413 11.38887 31939 ft 339 kts 310°
2026-04-21 19:44 42.07655 11.34274 31950 ft 339 kts 310°
2026-04-21 19:44 42.10896 11.29655 31946 ft 339 kts 310°
2026-04-21 19:45 42.14132 11.25034 31934 ft 339 kts 310°
2026-04-21 19:45 42.17364 11.20414 31941 ft 339 kts 310°
2026-04-21 19:46 42.20593 11.15788 31936 ft 339 kts 310°
2026-04-21 19:46 42.23819 11.11161 31948 ft 338 kts 310°
2026-04-21 19:47 42.27045 11.06526 31947 ft 339 kts 310°
2026-04-21 19:47 42.30267 11.01889 31945 ft 338 kts 310°
2026-04-21 19:48 42.33463 10.97282 31951 ft 338 kts 310°
2026-04-21 19:48 42.36683 10.92635 31940 ft 338 kts 310°
2026-04-21 19:49 42.39895 10.87990 31949 ft 338 kts 310°
2026-04-21 19:49 42.43109 10.83336 31943 ft 338 kts 310°
2026-04-21 19:50 42.45775 10.79469 31947 ft 338 kts 310°
2026-04-21 19:50 42.49503 10.74053 31942 ft 338 kts 310°
2026-04-21 19:51 42.52707 10.69390 31950 ft 338 kts 310°
2026-04-21 19:51 42.55908 10.64724 31950 ft 338 kts 310°
2026-04-21 19:52 42.59083 10.60088 31946 ft 337 kts 310°
2026-04-21 19:52 42.62270 10.55428 31869 ft 335 kts 310°
2026-04-21 19:52 42.62940 10.54448 31745 ft 334 kts 310°
2026-04-21 19:53 42.64572 10.52057 31223 ft 336 kts 310°
2026-04-21 19:53 42.66165 10.49720 30579 ft 339 kts 310°
2026-04-21 19:53 42.67227 10.48162 30222 ft 339 kts 311°
2026-04-21 19:53 42.69361 10.45030 29975 ft 336 kts 311°
2026-04-21 19:54 42.70412 10.43486 29946 ft 337 kts 311°
2026-04-21 19:54 42.73884 10.39154 29948 ft 341 kts 321°
2026-04-21 19:55 42.78681 10.35370 29947 ft 343 kts 327°
2026-04-21 19:55 42.82181 10.32730 29945 ft 343 kts 327°
2026-04-21 19:56 42.86326 10.29597 29941 ft 343 kts 327°
2026-04-21 19:56 42.90495 10.26446 29945 ft 342 kts 327°
2026-04-21 19:57 42.94663 10.23293 29951 ft 342 kts 327°
2026-04-21 19:57 42.98820 10.20143 29948 ft 342 kts 327°
2026-04-21 19:58 43.02972 10.16992 29948 ft 341 kts 327°
2026-04-21 19:58 43.07117 10.13841 29944 ft 341 kts 327°
2026-04-21 19:59 43.11246 10.10699 29735 ft 337 kts 327°
2026-04-21 19:59 43.13291 10.09140 29304 ft 336 kts 327°
2026-04-21 19:59 43.15324 10.07590 28801 ft 333 kts 327°
2026-04-21 19:59 43.17342 10.06050 28270 ft 331 kts 327°
2026-04-21 20:00 43.19347 10.04518 27749 ft 329 kts 327°
2026-04-21 20:00 43.21312 10.03016 27255 ft 326 kts 326°
2026-04-21 20:00 43.23286 10.01506 26751 ft 324 kts 326°
2026-04-21 20:00 43.25251 10.00001 26276 ft 322 kts 326°
2026-04-21 20:01 43.27199 9.98509 25811 ft 320 kts 326°
2026-04-21 20:01 43.29137 9.97022 25323 ft 318 kts 326°
2026-04-21 20:01 43.31065 9.95542 24861 ft 317 kts 326°
2026-04-21 20:01 43.32981 9.94070 24396 ft 315 kts 326°
2026-04-21 20:02 43.34890 9.92602 23954 ft 313 kts 326°
2026-04-21 20:02 43.36787 9.91143 23523 ft 311 kts 326°
2026-04-21 20:02 43.38673 9.89690 23025 ft 310 kts 326°
2026-04-21 20:02 43.40543 9.88250 22544 ft 307 kts 326°
2026-04-21 20:03 43.42404 9.86815 22091 ft 305 kts 326°
2026-04-21 20:03 43.44247 9.85394 21616 ft 303 kts 326°
2026-04-21 20:03 43.46077 9.83980 21160 ft 301 kts 326°
2026-04-21 20:03 43.47898 9.82573 20713 ft 299 kts 326°
2026-04-21 20:04 43.49708 9.81174 20273 ft 298 kts 326°
2026-04-21 20:04 43.51510 9.79779 19840 ft 296 kts 326°
2026-04-21 20:04 43.53300 9.78393 19416 ft 294 kts 326°
2026-04-21 20:04 43.55080 9.77014 19002 ft 293 kts 326°
2026-04-21 20:05 43.56828 9.75659 18590 ft 291 kts 326°
2026-04-21 20:05 43.58582 9.74298 17944 ft 289 kts 326°
2026-04-21 20:05 43.60333 9.72938 17261 ft 288 kts 326°
2026-04-21 20:05 43.62069 9.71589 16616 ft 286 kts 326°
2026-04-21 20:06 43.63797 9.70246 15962 ft 284 kts 327°
2026-04-21 20:06 43.65512 9.68911 15481 ft 278 kts 327°
2026-04-21 20:06 43.67145 9.67646 15288 ft 262 kts 327°
2026-04-21 20:06 43.68705 9.66435 15030 ft 253 kts 327°
2026-04-21 20:07 43.70269 9.65211 14961 ft 262 kts 327°
2026-04-21 20:07 43.71851 9.63973 14948 ft 260 kts 327°
2026-04-21 20:07 43.73421 9.62748 14805 ft 259 kts 327°
2026-04-21 20:07 43.74983 9.61529 14430 ft 258 kts 327°
2026-04-21 20:08 43.76524 9.60323 13909 ft 258 kts 327°
2026-04-21 20:08 43.78108 9.59084 13327 ft 258 kts 327°
2026-04-21 20:08 43.79667 9.57864 12736 ft 257 kts 327°
2026-04-21 20:08 43.81220 9.56649 12167 ft 256 kts 327°
2026-04-21 20:09 43.82770 9.55436 11603 ft 255 kts 327°
2026-04-21 20:09 43.84315 9.54226 11064 ft 255 kts 328°
2026-04-21 20:09 43.85855 9.53018 10524 ft 254 kts 328°
2026-04-21 20:09 43.87372 9.51828 10132 ft 254 kts 328°
2026-04-21 20:10 43.88903 9.50627 9989 ft 253 kts 328°
2026-04-21 20:10 43.90439 9.49421 9960 ft 255 kts 328°
2026-04-21 20:10 43.91991 9.48202 10201 ft 258 kts 328°
2026-04-21 20:10 43.93555 9.46973 10710 ft 257 kts 328°
2026-04-21 20:11 43.95103 9.45757 10908 ft 255 kts 328°
2026-04-21 20:11 43.96647 9.44541 10955 ft 255 kts 328°
2026-04-21 20:11 43.98145 9.43232 10956 ft 253 kts 318°
2026-04-21 20:11 43.99339 9.41455 10952 ft 252 kts 301°
2026-04-21 20:12 43.99882 9.39177 10964 ft 252 kts 275°
2026-04-21 20:12 43.99965 9.36733 10957 ft 253 kts 273°
2026-04-21 20:12 44.00022 9.34295 10960 ft 253 kts 273°
2026-04-21 20:12 44.00080 9.31858 10961 ft 253 kts 273°
2026-04-21 20:13 44.00137 9.29422 10952 ft 253 kts 273°
2026-04-21 20:13 44.00192 9.27017 10932 ft 251 kts 273°
2026-04-21 20:13 44.00247 9.24600 10715 ft 250 kts 273°
2026-04-21 20:13 44.00304 9.22188 10373 ft 250 kts 273°
2026-04-21 20:14 44.00367 9.19775 10068 ft 248 kts 273°
2026-04-21 20:14 44.00431 9.17383 9970 ft 251 kts 273°
2026-04-21 20:14 44.00498 9.14957 9961 ft 251 kts 273°
2026-04-21 20:14 44.00565 9.12544 9950 ft 250 kts 273°
2026-04-21 20:15 44.00631 9.10127 9959 ft 251 kts 273°
2026-04-21 20:15 44.00697 9.07707 9959 ft 251 kts 273°
2026-04-21 20:15 44.00762 9.05286 9958 ft 251 kts 273°
2026-04-21 20:15 44.00827 9.02869 9939 ft 249 kts 273°
2026-04-21 20:16 44.00891 9.00469 9715 ft 248 kts 273°
2026-04-21 20:16 44.00956 8.98069 9341 ft 249 kts 273°
2026-04-21 20:16 44.01024 8.95702 8928 ft 248 kts 273°
2026-04-21 20:16 44.01097 8.93312 8380 ft 248 kts 273°
2026-04-21 20:17 44.01180 8.90928 7832 ft 247 kts 276°
2026-04-21 20:17 44.01722 8.88694 7284 ft 247 kts 305°
2026-04-21 20:17 44.03032 8.87171 7058 ft 251 kts 335°
2026-04-21 20:17 44.04750 8.86771 6994 ft 255 kts
2026-04-21 20:18 44.05885 8.87197 6993 ft 258 kts 25°
2026-04-21 20:18 44.07589 8.89499 6994 ft 262 kts 64°
2026-04-21 20:18 44.07977 8.91962 6992 ft 264 kts 91°
2026-04-21 20:18 44.07890 8.94524 6827 ft 266 kts 93°
2026-04-21 20:19 44.07799 8.97068 6584 ft 261 kts 90°
2026-04-21 20:19 44.07873 8.99593 6368 ft 261 kts 86°
2026-04-21 20:19 44.08009 9.02084 6357 ft 256 kts 85°
2026-04-21 20:19 44.08137 9.04517 6133 ft 256 kts 86°
2026-04-21 20:20 44.08247 9.07012 6014 ft 256 kts 86°
2026-04-21 20:20 44.08338 9.09454 5987 ft 256 kts 87°
2026-04-21 20:20 44.08423 9.11933 5992 ft 257 kts 87°
2026-04-21 20:20 44.08504 9.14413 5990 ft 257 kts 87°
2026-04-21 20:21 44.08583 9.16891 5995 ft 257 kts 87°
2026-04-21 20:21 44.08660 9.19372 5991 ft 256 kts 87°
2026-04-21 20:21 44.08734 9.21783 5992 ft 242 kts 87°
2026-04-21 20:21 44.08803 9.24044 5986 ft 226 kts 87°
2026-04-21 20:22 44.08871 9.26200 5997 ft 224 kts 85°
2026-04-21 20:22 44.10094 9.29755 5997 ft 199 kts 50°
2026-04-21 20:22 44.10946 9.31264 5988 ft 199 kts 51°
2026-04-21 20:23 44.11788 9.32793 5987 ft 199 kts 51°
2026-04-21 20:23 44.12627 9.34330 5990 ft 199 kts 51°
2026-04-21 20:23 44.13464 9.35865 5990 ft 199 kts 51°
2026-04-21 20:23 44.14429 9.37211 5988 ft 196 kts 26°
2026-04-21 20:24 44.15743 9.37541 5992 ft 195 kts 349°
2026-04-21 20:24 44.16921 9.36726 5995 ft 184 kts 321°
2026-04-21 20:24 44.17880 9.35680 5988 ft 169 kts 321°
2026-04-21 20:24 44.18807 9.34671 5995 ft 173 kts 322°
2026-04-21 20:25 44.19756 9.33657 5995 ft 172 kts 322°
2026-04-21 20:25 44.20711 9.32653 5991 ft 172 kts 322°
2026-04-21 20:25 44.21669 9.31653 5990 ft 172 kts 323°
2026-04-21 20:25 44.22625 9.30647 5994 ft 172 kts 322°
2026-04-21 20:26 44.23573 9.29633 5994 ft 172 kts 322°
2026-04-21 20:26 44.24522 9.28614 5995 ft 172 kts 322°
2026-04-21 20:26 44.25471 9.27595 5987 ft 172 kts 322°
2026-04-21 20:26 44.26420 9.26579 5994 ft 172 kts 322°
2026-04-21 20:27 44.27369 9.25561 5995 ft 172 kts 322°
2026-04-21 20:27 44.28319 9.24544 6000 ft 172 kts 322°
2026-04-21 20:27 44.29272 9.23527 5995 ft 172 kts 322°
2026-04-21 20:27 44.30210 9.22537 5999 ft 171 kts 322°
2026-04-21 20:28 44.31166 9.21530 5998 ft 173 kts 322°
2026-04-21 20:28 44.32127 9.20517 6001 ft 173 kts 322°
2026-04-21 20:28 44.33070 9.19475 5993 ft 173 kts 315°
2026-04-21 20:28 44.33785 9.18124 5974 ft 174 kts 297°
2026-04-21 20:29 44.34249 9.16559 5729 ft 175 kts 289°
2026-04-21 20:29 44.34601 9.14937 5331 ft 174 kts 286°
2026-04-21 20:29 44.34944 9.13330 4931 ft 172 kts 287°
2026-04-21 20:29 44.35290 9.11740 4538 ft 171 kts 287°
2026-04-21 20:30 44.35636 9.10140 4136 ft 172 kts 287°
2026-04-21 20:30 44.35980 9.08550 3744 ft 170 kts 287°
2026-04-21 20:30 44.36320 9.06979 3398 ft 166 kts 287°
2026-04-21 20:30 44.36659 9.05414 3123 ft 170 kts 287°
2026-04-21 20:31 44.36995 9.03860 2862 ft 168 kts 287°
2026-04-21 20:31 44.37333 9.02297 2610 ft 168 kts 287°
2026-04-21 20:31 44.37671 9.00738 2371 ft 167 kts 287°
2026-04-21 20:31 44.38006 8.99187 2127 ft 166 kts 287°
2026-04-21 20:32 44.38329 8.97692 1908 ft 155 kts 287°
2026-04-21 20:32 44.38632 8.96295 1682 ft 146 kts 287°
2026-04-21 20:32 44.38905 8.95030 1473 ft 139 kts 287°
2026-04-21 20:32 44.39181 8.93756 1286 ft 138 kts 287°
2026-04-21 20:33 44.39459 8.92468 1086 ft 137 kts 287°
2026-04-21 20:33 44.39734 8.91196 895 ft 137 kts 287°
2026-04-21 20:33 44.40004 8.89944 694 ft 136 kts 287°
2026-04-21 20:33 44.40274 8.88682 497 ft 135 kts 287°
2026-04-21 20:34 44.40531 8.87476 323 ft 135 kts 287°
2026-04-21 20:34 44.40795 8.86211 122 ft 136 kts 285°
2026-04-21 20:34 44.41039 8.84984 19 ft 113 kts 285°
2026-04-21 20:34 44.41167 8.84336 20 ft 25 kts 285°
2026-04-21 20:35 44.41220 8.84062 20 ft 36 kts 285°
2026-04-21 20:35 44.41322 8.83777 19 ft 20 kts 316°
2026-04-21 20:35 44.41334 8.83763 18 ft 0 kts 322°
2026-04-21 20:36 44.41357 8.83746 18 ft 10 kts 342°
2026-04-21 20:36 44.41418 8.83825 19 ft 16 kts 87°
2026-04-21 20:36 44.41392 8.83997 19 ft 20 kts 105°
2026-04-21 20:36 44.41353 8.84190 20 ft 21 kts 106°
2026-04-21 20:37 44.41320 8.84356 19 ft 14 kts 97°
2026-04-21 20:37 44.41355 8.84458 21 ft 7 kts 46°
2026-04-21 20:37 44.41392 8.84530 19 ft 12 kts 57°
2026-04-21 20:37 44.41453 8.84649 20 ft 17 kts 53°
2026-04-21 20:38 44.41529 8.84786 20 ft 19 kts 52°
2026-04-21 20:38 44.41582 8.84881 20 ft 12 kts 63°
2026-04-21 20:38 44.41587 8.84947 20 ft 6 kts 104°
2026-04-21 20:38 44.41578 8.84985 20 ft 1 kts 107°
2026-04-21 20:39 44.41577 8.84987 20 ft 0 kts 107°